{"data":{"norad_id":57813,"intl_designator":"2023-138F","name":"STARLINK-30403","alt_names":[],"object_type":"PAYLOAD","status":"ACTIVE","operator":null,"country":"US","launch_date":"2023-09-09","launch_site_code":"AFETR","launch_vehicle":null,"mission":null,"orbit_class":"UNKNOWN","rcs_meters":null,"size_class":null,"mass_kg":null,"dimensions":null,"purposes":["comms"],"wikipedia_slug":null,"has_3d_model":false,"image_url":null,"decayed_at":null,"tle_current":{"epoch":"2026-05-24T18:32:00.685824Z","epoch_age_seconds":95545,"freshness":"FRESH","line1":"1 57813U 23138F   26144.77223016  .00001072  00000+0  48480-4 0  9993","line2":"2 57813  43.0026 164.5567 0000981 279.2784  80.7957 15.27565478150273","mean_motion":15.27565478,"eccentricity":9.81e-5,"inclination_deg":43.0026,"raan_deg":164.5567,"arg_perigee_deg":279.2784,"mean_anomaly_deg":80.7957,"bstar":4.848e-5,"rev_number":15027,"period_min":94.267644872765,"perigee_km":482.41949385456,"apogee_km":483.76566709825,"semimajor_km":6861.2295804764,"source":"CELESTRAK","updated_at":"2026-05-25T13:38:18.409374Z"}}}